Paris / Charles De Gaulle, France

4:34 AM CEST on September 23, 2017 (GMT +0200)
Charles de Gaulle

Weather History for LFPG - December, 2012

Change the Weather History Date:

Saturday, December 15, 2012

  Actual Average Record
Temperature  
Mean Temperature 48 °F -  
Max Temperature 51 °F 42 °F 52 °F (2015)
Min Temperature 46 °F 34 °F 23 °F (2001)
Degree Days  
Heating Degree Days 16    
Moisture  
Dew Point 43 °F    
Average Humidity 81    
Maximum Humidity 93    
Minimum Humidity 67    
Precipitation  
Precipitation 0.00 in - - ()
Sea Level Pressure  
Sea Level Pressure 29.51 in    
Wind  
Wind Speed 15 mph ()    
Max Wind Speed 25 mph    
Max Gust Speed 40 mph    
Visibility 5.9 miles    
Events Rain    
Averages and records for this station are not official NWS values.
T = Trace of Precipitation, MM = Missing Value Source: Averaged Metar Reports

Daily Weather History Graph

Daily Weather History Graph

Search for Another Location

Airport or City:

Trip Planner

Search our weather history database for the weather conditions in past years. The results will help you decide how hot, cold, wet, or windy it might be!

Date:

Astronomy

Dec. 15, 2012 Rise Set
Actual Time 8:37 AM CET 4:52 PM CET
Civil Twilight 8:00 AM CET 5:30 PM CET
Nautical Twilight 7:19 AM CET 6:10 PM CET
Astronomical Twilight 6:41 AM CET 6:49 PM CET
Moon 10:10 AM CET (12/15) 7:48 PM CET (12/15)
Length of Visible Light 9h 29m
Length of Day
8h 15m
Waxing Crescent, 7% of the Moon is Illuminated
Dec 15
Waxing Crescent
Dec 20
First Quarter
Dec 28
Full
Jan 5
Last Quarter
Jan 11
New

Hourly Weather History & Observations

Time (CET) Temp. Windchill Dew Point Humidity Pressure Visibility Wind Dir Wind Speed Gust Speed Precip Events Conditions
12:00 AM 50.0 °F - 44.6 °F 82% 29.33 in 6.2 mi SSW 19.6 mph - N/A   Mostly Cloudy
12:30 AM 50.0 °F - 42.8 °F 76% 29.33 in 6.2 mi SW 18.4 mph - N/A Rain Light Rain Showers
1:00 AM 48.2 °F - 42.8 °F 82% 29.36 in 3.7 mi SW 25.3 mph 38.0 mph N/A Rain Rain Showers
1:30 AM 46.4 °F 39.8 °F 42.8 °F 87% 29.36 in 5.0 mi SW 16.1 mph - N/A Rain Light Rain
2:00 AM 46.4 °F 40.4 °F 42.8 °F 87% 29.36 in 5.0 mi SW 13.8 mph - N/A Rain Light Rain
2:30 AM 46.4 °F 40.7 °F 42.8 °F 87% 29.36 in 6.2 mi SW 12.7 mph - N/A Rain Light Rain
3:00 AM 46.4 °F 41.1 °F 41.0 °F 81% 29.36 in - SW 11.5 mph - N/A   Clear
3:30 AM 46.4 °F 40.1 °F 41.0 °F 81% 29.39 in - SW 15.0 mph - N/A   Clear
4:00 AM 46.4 °F 41.1 °F 41.0 °F 81% 29.39 in - SW 11.5 mph - N/A   Clear
4:30 AM 46.4 °F 42.4 °F 41.0 °F 81% 29.39 in 6.2 mi SSW 8.1 mph - N/A   Mostly Cloudy
5:00 AM 48.2 °F - 42.8 °F 82% 29.42 in 6.2 mi SSW 16.1 mph - N/A   Mostly Cloudy
5:30 AM 48.2 °F - 42.8 °F 82% 29.42 in 6.2 mi SW 13.8 mph - N/A   Mostly Cloudy
6:00 AM 48.2 °F - 42.8 °F 82% 29.44 in 6.2 mi SW 10.4 mph - N/A   Mostly Cloudy
6:30 AM 48.2 °F - 42.8 °F 82% 29.44 in 6.2 mi SW 13.8 mph - N/A   Mostly Cloudy
7:00 AM 48.2 °F - 42.8 °F 82% 29.44 in 6.2 mi SW 13.8 mph - N/A   Mostly Cloudy
7:30 AM 46.4 °F 40.4 °F 41.0 °F 81% 29.47 in 6.2 mi SW 13.8 mph - N/A   Mostly Cloudy
8:00 AM 46.4 °F 40.7 °F 41.0 °F 81% 29.47 in 6.2 mi SSW 12.7 mph - N/A   Mostly Cloudy
8:30 AM 46.4 °F 41.1 °F 41.0 °F 81% 29.50 in 6.2 mi SW 11.5 mph - N/A   Mostly Cloudy
9:00 AM 46.4 °F 40.1 °F 41.0 °F 81% 29.53 in 6.2 mi SSW 15.0 mph - N/A   Mostly Cloudy
9:30 AM 46.4 °F 40.7 °F 42.8 °F 87% 29.53 in 6.2 mi SSW 12.7 mph - N/A   Mostly Cloudy
10:00 AM 46.4 °F 40.7 °F 42.8 °F 87% 29.56 in 6.2 mi SSW 12.7 mph - N/A   Mostly Cloudy
10:30 AM 48.2 °F - 42.8 °F 82% 29.56 in 6.2 mi SSW 16.1 mph - N/A   Scattered Clouds
11:00 AM 48.2 °F - 42.8 °F 82% 29.56 in 6.2 mi SSW 13.8 mph - N/A   Mostly Cloudy
11:30 AM 48.2 °F - 42.8 °F 82% 29.56 in 6.2 mi SSW 15.0 mph - N/A   Mostly Cloudy
12:00 PM 50.0 °F - 42.8 °F 76% 29.56 in 6.2 mi SSW 16.1 mph - N/A   Scattered Clouds
12:30 PM 50.0 °F - 42.8 °F 76% 29.56 in 6.2 mi SW 16.1 mph - N/A   Scattered Clouds
1:00 PM 50.0 °F - 42.8 °F 76% 29.56 in 6.2 mi SSW 17.3 mph - N/A   Scattered Clouds
1:30 PM 50.0 °F - 42.8 °F 76% 29.56 in 6.2 mi SSW 17.3 mph - N/A   Mostly Cloudy
2:00 PM 51.8 °F - 42.8 °F 71% 29.56 in 6.2 mi SSW 19.6 mph - N/A   Mostly Cloudy
2:30 PM 51.8 °F - 42.8 °F 71% 29.56 in 6.2 mi SSW 16.1 mph 28.8 mph N/A   Scattered Clouds
3:00 PM 51.8 °F - 42.8 °F 71% 29.56 in 6.2 mi SSW 16.1 mph - N/A   Scattered Clouds
3:30 PM 51.8 °F - 42.8 °F 71% 29.56 in 6.2 mi SSW 17.3 mph - N/A   Scattered Clouds
4:00 PM 51.8 °F - 42.8 °F 71% 29.56 in 6.2 mi SSW 19.6 mph - N/A   Scattered Clouds
4:30 PM 51.8 °F - 41.0 °F 67% 29.56 in 6.2 mi SSW 19.6 mph - N/A   Scattered Clouds
5:00 PM 50.0 °F - 42.8 °F 76% 29.59 in 6.2 mi SSW 17.3 mph - N/A   Mostly Cloudy
5:30 PM 50.0 °F - 44.6 °F 82% 29.59 in 6.2 mi SSW 13.8 mph - N/A   Mostly Cloudy
6:00 PM 50.0 °F - 44.6 °F 82% 29.59 in 6.2 mi SSW 19.6 mph 31.1 mph N/A Rain Light Rain Showers
6:30 PM 48.2 °F - 46.4 °F 93% 29.59 in 2.5 mi SSW 12.7 mph - N/A Rain Light Rain Showers
7:00 PM 48.2 °F - 46.4 °F 93% 29.59 in 6.2 mi WSW 13.8 mph - N/A   Mostly Cloudy
7:30 PM 50.0 °F - 44.6 °F 82% 29.59 in 6.2 mi SSW 20.7 mph - N/A Rain Light Rain Showers
8:00 PM 48.2 °F - 42.8 °F 82% 29.59 in 3.1 mi SW 24.2 mph 40.3 mph N/A Rain Rain Showers
8:30 PM 46.4 °F 39.2 °F 42.8 °F 87% 29.59 in 5.0 mi SW 18.4 mph - N/A Rain Light Rain Showers
9:00 PM 46.4 °F 40.1 °F 42.8 °F 87% 29.59 in 6.2 mi SW 15.0 mph - N/A   Mostly Cloudy
9:30 PM 46.4 °F 40.1 °F 42.8 °F 87% 29.62 in 6.2 mi SW 15.0 mph - N/A   Scattered Clouds
10:00 PM 46.4 °F 40.7 °F 42.8 °F 87% 29.62 in 6.2 mi SW 12.7 mph - N/A   Mostly Cloudy
10:30 PM 48.2 °F - 42.8 °F 82% 29.62 in 6.2 mi SW 16.1 mph - N/A   Partly Cloudy
11:00 PM 48.2 °F - 42.8 °F 82% 29.62 in 6.2 mi SW 17.3 mph - N/A   Scattered Clouds
11:30 PM 48.2 °F - 42.8 °F 82% 29.65 in 6.2 mi SW 16.1 mph - N/A   Mostly Cloudy